Time,TemperatureF,DewpointF,PressureIn,WindDirection,WindDirectionDegrees,WindSpeedMPH,WindSpeedGustMPH,Humidity,HourlyPrecipIn,Conditions,Clouds,dailyrainin,SoftwareType,DateUTC
2013-04-28 00:05:00,158.0,0.0,30.05,ESE,123,4.0,5.0,0,0.00,,---,0.00,VWS V14.00,2013-04-28 05:05:00,
2013-04-28 00:15:00,158.0,0.0,30.04,SE,127,6.0,9.0,0,0.00,,---,0.00,VWS V14.00,2013-04-28 05:15:00,
2013-04-28 00:25:00,158.0,0.0,30.03,SE,129,9.0,10.0,0,0.00,,---,0.00,VWS V14.00,2013-04-28 05:25:00,
2013-04-28 00:35:00,158.0,0.0,30.04,SE,137,10.0,12.0,0,0.00,,---,0.00,VWS V14.00,2013-04-28 05:35:00,
2013-04-28 00:45:00,158.0,0.0,30.03,SE,129,9.0,11.0,0,0.00,,---,0.00,VWS V14.00,2013-04-28 05:45:00,
2013-04-28 00:55:00,158.0,0.0,30.03,SE,128,7.0,10.0,0,0.00,,---,0.00,VWS V14.00,2013-04-28 05:55:00,
2013-04-28 01:05:00,158.0,0.0,30.03,SE,124,7.0,10.0,0,0.00,,---,0.00,VWS V14.00,2013-04-28 06:05:00,
2013-04-28 01:15:00,158.0,0.0,30.02,ESE,116,8.0,10.0,0,0.00,,---,0.00,VWS V14.00,2013-04-28 06:15:00,
2013-04-28 01:25:00,158.0,0.0,30.02,ESE,111,6.0,9.0,0,0.00,,---,0.00,VWS V14.00,2013-04-28 06:25:00,
2013-04-28 01:35:00,158.0,0.0,30.02,ESE,117,6.0,7.0,0,0.00,,---,0.00,VWS V14.00,2013-04-28 06:35:00,
2013-04-28 01:45:00,158.0,0.0,30.01,SE,126,3.0,7.0,0,0.00,,---,0.00,VWS V14.00,2013-04-28 06:45:00,
2013-04-28 01:55:00,158.0,0.0,30.01,SE,136,4.0,7.0,0,0.00,,---,0.00,VWS V14.00,2013-04-28 06:55:00,
2013-04-28 02:05:00,158.0,0.0,30.00,SE,136,5.0,7.0,0,0.00,,---,0.00,VWS V14.00,2013-04-28 07:05:00,
2013-04-28 02:15:00,158.0,0.0,30.00,SE,127,4.0,7.0,0,0.00,,---,0.00,VWS V14.00,2013-04-28 07:15:00,
2013-04-28 02:25:00,158.0,0.0,30.00,SE,127,4.0,5.0,0,0.00,,---,0.00,VWS V14.00,2013-04-28 07:25:00,
2013-04-28 02:35:00,158.0,0.0,30.00,SE,131,4.0,5.0,0,0.00,,---,0.00,VWS V14.00,2013-04-28 07:35:00,
2013-04-28 02:45:00,158.0,0.0,30.00,SE,131,1.0,4.0,0,0.00,,---,0.00,VWS V14.00,2013-04-28 07:45:00,
2013-04-28 02:55:00,158.0,0.0,30.01,SE,131,3.0,5.0,0,0.00,,---,0.00,VWS V14.00,2013-04-28 07:55:00,
2013-04-28 03:05:00,158.0,0.0,30.01,SE,131,3.0,4.0,0,0.00,,---,0.00,VWS V14.00,2013-04-28 08:05:00,
2013-04-28 03:15:00,158.0,0.0,30.01,SE,131,0.0,5.0,0,0.00,,---,0.00,VWS V14.00,2013-04-28 08:15:00,
2013-04-28 03:25:00,158.0,0.0,30.01,SE,131,0.0,0.0,0,0.00,,---,0.00,VWS V14.00,2013-04-28 08:25:00,
2013-04-28 03:35:00,158.0,0.0,30.01,SE,131,0.0,0.0,0,0.00,,---,0.00,VWS V14.00,2013-04-28 08:35:00,
2013-04-28 03:45:00,158.0,0.0,30.01,SE,131,0.0,0.0,0,0.00,,---,0.00,VWS V14.00,2013-04-28 08:45:00,
2013-04-28 03:55:00,158.0,0.0,30.01,SE,131,2.0,5.0,0,0.00,,---,0.00,VWS V14.00,2013-04-28 08:55:00,
2013-04-28 04:05:00,158.0,0.0,30.01,SE,131,0.0,3.0,0,0.00,,---,0.00,VWS V14.00,2013-04-28 09:05:00,
2013-04-28 04:15:00,158.0,0.0,30.01,SE,131,0.0,0.0,0,0.00,,---,0.00,VWS V14.00,2013-04-28 09:15:00,
2013-04-28 04:25:00,158.0,0.0,30.01,SE,131,1.0,1.0,0,0.00,,---,0.00,VWS V14.00,2013-04-28 09:25:00,
2013-04-28 04:35:00,158.0,0.0,30.01,SE,131,0.0,6.0,0,0.00,,---,0.00,VWS V14.00,2013-04-28 09:35:00,
2013-04-28 04:45:00,158.0,0.0,30.01,SE,131,4.0,4.0,0,0.00,,---,0.00,VWS V14.00,2013-04-28 09:45:00,
2013-04-28 04:55:00,158.0,0.0,30.00,ESE,109,3.0,5.0,0,0.00,,---,0.00,VWS V14.00,2013-04-28 09:55:00,
2013-04-28 05:05:00,158.0,0.0,30.00,ESE,115,2.0,4.0,0,0.00,,---,0.00,VWS V14.00,2013-04-28 10:05:00,
2013-04-28 05:15:00,158.0,0.0,30.00,SE,137,5.0,6.0,0,0.00,,---,0.00,VWS V14.00,2013-04-28 10:15:00,
2013-04-28 05:25:00,158.0,0.0,30.00,SE,146,3.0,7.0,0,0.00,,---,0.00,VWS V14.00,2013-04-28 10:25:00,
2013-04-28 05:35:00,158.0,0.0,30.00,SSE,167,5.0,7.0,0,0.00,,---,0.00,VWS V14.00,2013-04-28 10:35:00,
2013-04-28 05:45:00,158.0,0.0,30.00,South,174,5.0,9.0,0,0.00,,---,0.00,VWS V14.00,2013-04-28 10:45:00,
2013-04-28 05:55:00,158.0,0.0,30.00,SSE,167,5.0,7.0,0,0.00,,---,0.00,VWS V14.00,2013-04-28 10:55:00,
2013-04-28 06:05:00,158.0,0.0,29.99,SSE,165,3.0,7.0,0,0.00,,---,0.00,VWS V14.00,2013-04-28 11:05:00,
2013-04-28 06:15:00,158.0,0.0,29.99,SSE,165,5.0,5.0,0,0.00,,---,0.00,VWS V14.00,2013-04-28 11:15:00,
2013-04-28 06:25:00,158.0,0.0,30.00,SSE,165,3.0,5.0,0,0.00,,---,0.00,VWS V14.00,2013-04-28 11:25:00,
2013-04-28 06:35:00,158.0,0.0,30.00,SSE,165,3.0,5.0,0,0.00,,---,0.00,VWS V14.00,2013-04-28 11:35:00,
2013-04-28 06:45:00,158.0,0.0,30.01,SSE,165,4.0,4.0,0,0.00,,---,0.00,VWS V14.00,2013-04-28 11:45:00,
2013-04-28 06:55:00,158.0,0.0,30.01,SSE,165,3.0,4.0,0,0.00,,---,0.00,VWS V14.00,2013-04-28 11:55:00,
2013-04-28 07:05:00,158.0,0.0,30.01,SSE,165,2.0,4.0,0,0.00,,---,0.00,VWS V14.00,2013-04-28 12:05:00,
2013-04-28 07:15:00,158.0,0.0,30.02,SSE,165,2.0,4.0,0,0.00,,---,0.00,VWS V14.00,2013-04-28 12:15:00,
2013-04-28 07:25:00,158.0,0.0,30.01,SSE,165,4.0,4.0,0,0.00,,---,0.00,VWS V14.00,2013-04-28 12:25:00,
2013-04-28 07:35:00,158.0,0.0,30.01,SSE,165,5.0,6.0,0,0.00,,---,0.00,VWS V14.00,2013-04-28 12:35:00,
2013-04-28 07:45:00,158.0,0.0,30.01,SSE,164,3.0,5.0,0,0.00,,---,0.00,VWS V14.00,2013-04-28 12:45:00,
2013-04-28 07:55:00,158.0,0.0,30.01,SSE,164,4.0,5.0,0,0.00,,---,0.00,VWS V14.00,2013-04-28 12:55:00,
2013-04-28 08:05:00,158.0,0.0,30.01,SSE,152,6.0,7.0,0,0.00,,---,0.00,VWS V14.00,2013-04-28 13:05:00,
2013-04-28 08:15:00,158.0,0.0,30.01,SSE,157,7.0,9.0,0,0.00,,---,0.00,VWS V14.00,2013-04-28 13:15:00,
2013-04-28 08:25:00,158.0,0.0,30.01,SSE,155,9.0,11.0,0,0.00,,---,0.00,VWS V14.00,2013-04-28 13:25:00,
2013-04-28 08:35:00,158.0,0.0,30.01,SSE,157,9.0,11.0,0,0.00,,---,0.00,VWS V14.00,2013-04-28 13:35:00,
2013-04-28 08:45:00,158.0,0.0,30.01,SSE,154,10.0,12.0,0,0.00,,---,0.00,VWS V14.00,2013-04-28 13:45:00,
2013-04-28 08:55:00,158.0,0.0,30.00,SSE,160,10.0,12.0,0,0.00,,---,0.00,VWS V14.00,2013-04-28 13:55:00,
2013-04-28 09:05:00,158.0,0.0,30.00,SSE,155,9.0,12.0,0,0.00,,---,0.00,VWS V14.00,2013-04-28 14:05:00,
2013-04-28 09:15:00,158.0,0.0,30.00,SSE,167,9.0,13.0,0,0.00,,---,0.00,VWS V14.00,2013-04-28 14:15:00,
2013-04-28 09:25:00,158.0,0.0,30.00,South,186,10.0,11.0,0,0.00,,---,0.00,VWS V14.00,2013-04-28 14:25:00,
2013-04-28 09:35:00,158.0,0.0,30.00,SSE,165,10.0,12.0,0,0.00,,---,0.00,VWS V14.00,2013-04-28 14:35:00,
2013-04-28 09:45:00,158.0,0.0,30.00,SSE,159,12.0,14.0,0,0.00,,---,0.00,VWS V14.00,2013-04-28 14:45:00,
2013-04-28 09:55:00,158.0,0.0,30.00,SSE,162,10.0,12.0,0,0.00,,---,0.00,VWS V14.00,2013-04-28 14:55:00,
2013-04-28 10:05:00,158.0,0.0,30.00,South,178,12.0,12.0,0,0.00,,---,0.00,VWS V14.00,2013-04-28 15:05:00,
2013-04-28 10:15:00,158.0,0.0,30.01,South,183,10.0,12.0,0,0.00,,---,0.00,VWS V14.00,2013-04-28 15:15:00,
2013-04-28 10:25:00,158.0,0.0,30.01,SSE,163,11.0,14.0,0,0.00,,---,0.00,VWS V14.00,2013-04-28 15:25:00,
2013-04-28 10:35:00,158.0,0.0,30.01,SSE,167,11.0,17.0,0,0.00,,---,0.00,VWS V14.00,2013-04-28 15:35:00,
2013-04-28 10:45:00,158.0,0.0,30.01,SSE,168,12.0,15.0,0,0.00,,---,0.00,VWS V14.00,2013-04-28 15:45:00,
2013-04-28 10:55:00,158.0,0.0,30.01,SSE,165,12.0,16.0,0,0.00,,---,0.00,VWS V14.00,2013-04-28 15:55:00,
2013-04-28 11:05:00,158.0,0.0,30.01,SSE,162,15.0,16.0,0,0.00,,---,0.00,VWS V14.00,2013-04-28 16:05:00,
2013-04-28 11:15:00,158.0,0.0,30.01,South,172,14.0,17.0,0,0.00,,---,0.00,VWS V14.00,2013-04-28 16:15:00,
2013-04-28 11:25:00,158.0,0.0,30.01,South,181,13.0,17.0,0,0.00,,---,0.00,VWS V14.00,2013-04-28 16:25:00,
2013-04-28 11:35:00,158.0,0.0,30.00,South,184,11.0,15.0,0,0.00,,---,0.00,VWS V14.00,2013-04-28 16:35:00,
2013-04-28 11:45:00,158.0,0.0,30.00,South,175,13.0,16.0,0,0.00,,---,0.00,VWS V14.00,2013-04-28 16:45:00,
2013-04-28 11:55:00,158.0,0.0,30.00,South,178,13.0,16.0,0,0.00,,---,0.00,VWS V14.00,2013-04-28 16:55:00,
2013-04-28 12:05:00,158.0,0.0,30.00,South,182,15.0,16.0,0,0.00,,---,0.00,VWS V14.00,2013-04-28 17:05:00,
2013-04-28 12:15:00,158.0,0.0,30.00,South,178,14.0,16.0,0,0.00,,---,0.00,VWS V14.00,2013-04-28 17:15:00,
2013-04-28 12:25:00,158.0,0.0,29.99,SSE,168,11.0,15.0,0,0.00,,---,0.00,VWS V14.00,2013-04-28 17:25:00,
2013-04-28 12:35:00,158.0,0.0,29.99,South,170,12.0,16.0,0,0.00,,---,0.00,VWS V14.00,2013-04-28 17:35:00,
2013-04-28 12:45:00,158.0,0.0,29.99,SSE,167,14.0,15.0,0,0.00,,---,0.00,VWS V14.00,2013-04-28 17:45:00,
2013-04-28 12:55:00,158.0,0.0,29.99,SSE,168,12.0,15.0,0,0.00,,---,0.00,VWS V14.00,2013-04-28 17:55:00,
2013-04-28 13:05:00,158.0,0.0,29.98,South,171,11.0,15.0,0,0.00,,---,0.00,VWS V14.00,2013-04-28 18:05:00,
2013-04-28 13:15:00,158.0,0.0,29.98,SSE,168,11.0,15.0,0,0.00,,---,0.00,VWS V14.00,2013-04-28 18:15:00,
2013-04-28 13:25:00,158.0,0.0,29.98,SSE,163,12.0,14.0,0,0.00,,---,0.00,VWS V14.00,2013-04-28 18:25:00,
2013-04-28 13:35:00,158.0,0.0,29.98,SSE,162,11.0,15.0,0,0.00,,---,0.00,VWS V14.00,2013-04-28 18:35:00,
2013-04-28 13:45:00,158.0,0.0,29.98,South,171,11.0,13.0,0,0.00,,---,0.00,VWS V14.00,2013-04-28 18:45:00,
2013-04-28 13:55:00,158.0,0.0,29.98,SSE,156,13.0,14.0,0,0.00,,---,0.00,VWS V14.00,2013-04-28 18:55:00,
2013-04-28 14:05:00,158.0,0.0,29.97,SSE,167,12.0,16.0,0,0.00,,---,0.00,VWS V14.00,2013-04-28 19:05:00,
2013-04-28 14:15:00,158.0,0.0,29.97,SSE,165,11.0,14.0,0,0.00,,---,0.00,VWS V14.00,2013-04-28 19:15:00,
2013-04-28 14:25:00,158.0,0.0,29.97,SSE,159,12.0,15.0,0,0.00,,---,0.00,VWS V14.00,2013-04-28 19:25:00,
2013-04-28 14:35:00,158.0,0.0,29.97,SSE,156,14.0,16.0,0,0.00,,---,0.00,VWS V14.00,2013-04-28 19:35:00,
2013-04-28 14:45:00,158.0,0.0,29.97,SSE,155,16.0,16.0,0,0.00,,---,0.00,VWS V14.00,2013-04-28 19:45:00,
2013-04-28 14:55:00,158.0,0.0,29.96,SSE,153,15.0,17.0,0,0.00,,---,0.00,VWS V14.00,2013-04-28 19:55:00,
2013-04-28 15:05:00,158.0,0.0,29.95,SSE,157,13.0,16.0,0,0.00,,---,0.00,VWS V14.00,2013-04-28 20:05:00,
2013-04-28 15:15:00,158.0,0.0,29.94,SSE,158,15.0,17.0,0,0.00,,---,0.00,VWS V14.00,2013-04-28 20:15:00,
2013-04-28 15:25:00,158.0,0.0,29.93,SSE,155,13.0,16.0,0,0.00,,---,0.00,VWS V14.00,2013-04-28 20:25:00,
2013-04-28 15:35:00,158.0,0.0,29.93,SSE,162,11.0,15.0,0,0.00,,---,0.00,VWS V14.00,2013-04-28 20:35:00,
2013-04-28 15:45:00,158.0,0.0,29.93,SSE,161,9.0,13.0,0,0.00,,---,0.00,VWS V14.00,2013-04-28 20:45:00,
2013-04-28 16:05:00,158.0,0.0,29.93,SSE,166,10.0,12.0,0,0.00,,---,0.00,VWS V14.00,2013-04-28 21:05:00,
2013-04-28 16:15:00,158.0,0.0,29.93,SSE,168,6.0,11.0,0,0.00,,---,0.00,VWS V14.00,2013-04-28 21:15:00,
2013-04-28 16:25:00,158.0,0.0,29.93,SSE,159,8.0,11.0,0,0.00,,---,0.00,VWS V14.00,2013-04-28 21:25:00,
2013-04-28 16:35:00,158.0,0.0,29.93,SSE,160,10.0,11.0,0,0.00,,---,0.00,VWS V14.00,2013-04-28 21:35:00,
2013-04-28 16:45:00,158.0,0.0,29.93,SSE,165,5.0,10.0,0,0.00,,---,0.00,VWS V14.00,2013-04-28 21:45:00,
2013-04-28 16:55:00,158.0,0.0,29.93,SSE,167,6.0,9.0,0,0.00,,---,0.00,VWS V14.00,2013-04-28 21:55:00,
2013-04-28 17:05:00,158.0,0.0,29.92,SSE,165,5.0,7.0,0,0.00,,---,0.00,VWS V14.00,2013-04-28 22:05:00,
2013-04-28 17:15:00,158.0,0.0,29.92,SSE,165,5.0,6.0,0,0.00,,---,0.00,VWS V14.00,2013-04-28 22:15:00,
2013-04-28 17:25:00,158.0,0.0,29.92,SSE,165,3.0,6.0,0,0.00,,---,0.00,VWS V14.00,2013-04-28 22:25:00,
2013-04-28 17:35:00,158.0,0.0,29.93,NW,317,3.0,6.0,0,0.00,,---,0.00,VWS V14.00,2013-04-28 22:35:00,
2013-04-28 17:45:00,158.0,0.0,29.93,NW,326,11.0,14.0,0,0.00,,---,0.00,VWS V14.00,2013-04-28 22:45:00,
2013-04-28 17:55:00,158.0,0.0,29.93,NNW,335,12.0,13.0,0,0.00,,---,0.00,VWS V14.00,2013-04-28 22:55:00,
2013-04-28 18:05:00,158.0,0.0,29.93,NNW,340,9.0,13.0,0,0.00,,---,0.00,VWS V14.00,2013-04-28 23:05:00,
2013-04-28 18:15:00,158.0,0.0,29.93,NW,321,9.0,11.0,0,0.00,,---,0.00,VWS V14.00,2013-04-28 23:15:00,
2013-04-28 18:25:00,158.0,0.0,29.93,NNW,339,8.0,11.0,0,0.00,,---,0.00,VWS V14.00,2013-04-28 23:25:00,
2013-04-28 18:35:00,158.0,0.0,29.93,North,355,7.0,10.0,0,0.00,,---,0.00,VWS V14.00,2013-04-28 23:35:00,
2013-04-28 18:45:00,158.0,0.0,29.93,North,11,6.0,9.0,0,0.00,,---,0.00,VWS V14.00,2013-04-28 23:45:00,
2013-04-28 18:55:00,158.0,0.0,29.93,NNE,32,7.0,7.0,0,0.00,,---,0.00,VWS V14.00,2013-04-28 23:55:00,
2013-04-28 19:05:00,158.0,0.0,29.93,NE,48,5.0,7.0,0,0.00,,---,0.00,VWS V14.00,2013-04-29 00:05:00,
2013-04-28 19:15:00,158.0,0.0,29.93,ENE,63,1.0,5.0,0,0.00,,---,0.00,VWS V14.00,2013-04-29 00:15:00,
2013-04-28 19:25:00,158.0,0.0,29.92,ENE,63,0.0,1.0,0,0.00,,---,0.00,VWS V14.00,2013-04-29 00:25:00,
2013-04-28 19:35:00,158.0,0.0,29.92,ENE,63,4.0,5.0,0,0.00,,---,0.00,VWS V14.00,2013-04-29 00:35:00,
2013-04-28 19:45:00,158.0,0.0,29.92,ENE,63,4.0,4.0,0,0.00,,---,0.00,VWS V14.00,2013-04-29 00:45:00,
2013-04-28 19:55:00,158.0,0.0,29.92,ENE,63,2.0,4.0,0,0.00,,---,0.00,VWS V14.00,2013-04-29 00:55:00,
2013-04-28 20:05:00,158.0,0.0,29.92,ENE,63,0.0,2.0,0,0.00,,---,0.00,VWS V14.00,2013-04-29 01:05:00,
2013-04-28 20:15:00,158.0,0.0,29.93,ENE,63,0.0,4.0,0,0.00,,---,0.00,VWS V14.00,2013-04-29 01:15:00,
2013-04-28 20:25:00,158.0,0.0,29.93,ENE,63,0.0,0.0,0,0.00,,---,0.00,VWS V14.00,2013-04-29 01:25:00,
2013-04-28 20:35:00,158.0,0.0,29.93,ENE,63,0.0,0.0,0,0.00,,---,0.00,VWS V14.00,2013-04-29 01:35:00,
2013-04-28 20:45:00,158.0,0.0,29.93,ENE,63,0.0,0.0,0,0.00,,---,0.00,VWS V14.00,2013-04-29 01:45:00,
2013-04-28 20:55:00,158.0,0.0,29.93,NNE,13,4.0,5.0,0,0.00,,---,0.00,VWS V14.00,2013-04-29 01:55:00,
2013-04-28 21:05:00,158.0,0.0,29.93,NNE,13,4.0,5.0,0,0.00,,---,0.00,VWS V14.00,2013-04-29 02:05:00,
2013-04-28 21:15:00,158.0,0.0,29.94,NNE,13,3.0,5.0,0,0.00,,---,0.00,VWS V14.00,2013-04-29 02:15:00,
2013-04-28 21:25:00,158.0,0.0,29.94,NNE,13,1.0,4.0,0,0.00,,---,0.00,VWS V14.00,2013-04-29 02:25:00,
2013-04-28 21:35:00,158.0,0.0,29.94,NNE,13,0.0,1.0,0,0.00,,---,0.00,VWS V14.00,2013-04-29 02:35:00,
2013-04-28 21:45:00,158.0,0.0,29.94,NNE,13,0.0,2.0,0,0.00,,---,0.00,VWS V14.00,2013-04-29 02:45:00,
2013-04-28 21:55:00,158.0,0.0,29.95,NNE,13,0.0,0.0,0,0.00,,---,0.00,VWS V14.00,2013-04-29 02:55:00,
2013-04-28 22:05:00,158.0,0.0,29.95,NNE,26,2.0,4.0,0,0.00,,---,0.00,VWS V14.00,2013-04-29 03:05:00,
2013-04-28 22:15:00,158.0,0.0,29.94,NNE,26,5.0,5.0,0,0.00,,---,0.00,VWS V14.00,2013-04-29 03:15:00,
2013-04-28 22:25:00,158.0,0.0,29.94,ENE,61,5.0,7.0,0,0.00,,---,0.00,VWS V14.00,2013-04-29 03:25:00,
2013-04-28 22:35:00,158.0,0.0,29.94,ENE,59,6.0,7.0,0,0.00,,---,0.00,VWS V14.00,2013-04-29 03:35:00,
2013-04-28 22:45:00,158.0,0.0,29.94,ENE,67,6.0,9.0,0,0.00,,---,0.00,VWS V14.00,2013-04-29 03:45:00,
2013-04-28 22:55:00,158.0,0.0,29.94,ENE,69,5.0,7.0,0,0.00,,---,0.00,VWS V14.00,2013-04-29 03:55:00,
2013-04-28 23:05:00,158.0,0.0,29.94,East,84,5.0,9.0,0,0.00,,---,0.00,VWS V14.00,2013-04-29 04:05:00,
2013-04-28 23:15:00,158.0,0.0,29.93,East,84,5.0,9.0,0,0.00,,---,0.00,VWS V14.00,2013-04-29 04:15:00,
2013-04-28 23:25:00,158.0,0.0,29.93,East,84,5.0,7.0,0,0.00,,---,0.00,VWS V14.00,2013-04-29 04:25:00,
2013-04-28 23:35:00,158.0,0.0,29.93,East,92,6.0,9.0,0,0.00,,---,0.00,VWS V14.00,2013-04-29 04:35:00,
2013-04-28 23:45:00,158.0,0.0,29.93,East,88,5.0,9.0,0,0.00,,---,0.00,VWS V14.00,2013-04-29 04:45:00,
2013-04-28 23:55:00,158.0,0.0,29.93,East,94,9.0,10.0,0,0.00,,---,0.00,VWS V14.00,2013-04-29 04:55:00,